Regional Weather Roundup
Issued by NWS

Home | Current Version | Previous Version | Graphics & Text | Print | Product List | Glossary Off
Versions: 1 2 3 4 5 6 7 8 9 10 11 12 13 14 15 16 17 18 19 20 21 22 23 24 25 26 27 28 29 30 31 32 33 34 35 36 37 38 39 40 41 42 43 44 45 46 47 48 49 50

000
ASUS43 KFSD 180702
RWRSD

WEATHER ROUNDUP FOR SOUTH DAKOTA
NATIONAL WEATHER SERVICE SIOUX FALLS SD
200 AM CDT SAT APR 18 2015

NOTE: "FAIR" INDICATES FEW OR NO CLOUDS BELOW 12,000 FEET WITH NO
SIGNIFICANT WEATHER AND/OR OBSTRUCTIONS TO VISIBILITY.


SDZ001>005-009-010-012>017-180800-
NORTHWEST AND NORTH CENTRAL SOUTH DAKOTA

CITY           SKY/WX    TMP DP  RH WIND       PRES   REMARKS
BUFFALO          N/A     46  28  49 S6        30.01S
FAITH            N/A     48  36  63 SW8       30.07F
MOBRIDGE       MOCLDY    42  27  55 CALM      30.04S
$$

SDZ012>016-024>037-041>051-057-063-072>074-180800-
SOUTHWEST AND SOUTH CENTRAL SOUTH DAKOTA

CITY           SKY/WX    TMP DP  RH WIND       PRES   REMARKS
RAPID CTY ARPT CLOUDY    48  44  86 CALM      30.08F
PIERRE         CLOUDY    53  48  83 NW8       30.05F
CUSTER         CLOUDY    41  39  93 NE7       30.08F FOG
ELLSWORTH AFB  CLOUDY    49  46  91 SW2       30.07F
PHILIP         CLOUDY    51  47  86 CALM      30.06F
PINE RIDGE     LGT RAIN  49  46  90 E12       30.05S
WINNER         CLOUDY    53  49  86 NE7       30.03F
$$

SDZ004>011-016>023-039-040-180800-
NORTHEAST SOUTH DAKOTA

CITY           SKY/WX    TMP DP  RH WIND       PRES   REMARKS
ABERDEEN       MOCLDY    49  28  44 NE7       30.08R
WATERTOWN      CLEAR     39  26  59 N3        30.07S
BROOKINGS      MOCLDY    45  28  53 CALM      30.07F
SISSETON         N/A     47  27  45 NW10      30.08R
$$

SDZ017-020-022-023-036>040-048>070-180800-
SOUTHEAST SOUTH DAKOTA

CITY           SKY/WX    TMP DP  RH WIND       PRES   REMARKS
SIOUX FALLS    CLOUDY    49  30  48 NE6       30.02F
HURON          CLOUDY    51  29  42 E5        30.05S
MITCHELL       MOCLDY    56  28  34 NE5       30.04F
YANKTON        MOCLDY    55  46  71 NE7       30.01S
$$

ABBREVIATIONS USED IN REMARKS
   TC - TEMPERATURE IN CELSIUS
  WCI - WIND CHILL INDEX
   HX - HEAT INDEX
  VSB - VISIBILITY




USA.gov is the U.S. government's official web portal to all federal, state and local government web resources and services.